�������l�o���
Date,Time,MP-1(��Sv/h),MP-2(��Sv/h),MP-3(��Sv/h),MP-4(��Sv/h),MP-5(��Sv/h),MP-6(��Sv/h),MP-7(��Sv/h),MP-8(��Sv/h),����,����(m/s),���J
2020/02/21,00:00,0.688,0.990,0.650,1.218,0.869,0.396,0.696,0.660,�k��,6.5,��
2020/02/21,00:10,0.688,0.990,0.649,1.218,0.869,0.395,0.694,0.659,�k��,6.8,��
2020/02/21,00:20,0.690,0.986,0.649,1.221,0.867,0.397,0.694,0.661,�k��,6.6,��
2020/02/21,00:30,0.689,0.991,0.649,1.218,0.868,0.395,0.693,0.660,�k��,5.9,��
2020/02/21,00:40,0.689,0.988,0.651,1.219,0.870,0.397,0.693,0.661,�k��,5.8,��
2020/02/21,00:50,0.688,0.991,0.649,1.220,0.867,0.396,0.693,0.660,�k��,6.5,��
2020/02/21,01:00,0.688,0.988,0.650,1.220,0.869,0.396,0.694,0.660,�k��,5.7,��
2020/02/21,01:10,0.689,0.989,0.651,1.218,0.867,0.396,0.694,0.661,�k��,4.7,��
2020/02/21,01:20,0.690,0.987,0.649,1.216,0.867,0.396,0.694,0.661,�k��,4.0,��
2020/02/21,01:30,0.689,0.989,0.650,1.217,0.867,0.396,0.692,0.660,�k��,4.4,��
2020/02/21,01:40,0.688,0.988,0.649,1.221,0.867,0.397,0.694,0.660,�k��,4.1,��
2020/02/21,01:50,0.688,0.989,0.649,1.218,0.868,0.396,0.694,0.661,�k��,3.6,��
2020/02/21,02:00,0.688,0.988,0.649,1.221,0.865,0.398,0.694,0.660,�k��,4.3,��
2020/02/21,02:10,0.689,0.987,0.647,1.218,0.867,0.397,0.694,0.661,�k��,4.9,��
2020/02/21,02:20,0.688,0.988,0.651,1.218,0.868,0.397,0.695,0.660,�k�k��,3.4,��
2020/02/21,02:30,0.688,0.988,0.648,1.218,0.868,0.398,0.694,0.662,�k�k��,3.6,��
2020/02/21,02:40,0.686,0.988,0.648,1.216,0.868,0.395,0.694,0.660,�k�k��,3.6,��
2020/02/21,02:50,0.687,0.987,0.649,1.217,0.867,0.398,0.693,0.661,�k�k��,4.4,��
2020/02/21,03:00,0.685,0.988,0.649,1.218,0.870,0.396,0.692,0.662,�k��,4.6,��
2020/02/21,03:10,0.688,0.989,0.650,1.219,0.867,0.397,0.693,0.661,�k��,5.1,��
2020/02/21,03:20,0.685,0.987,0.649,1.220,0.868,0.395,0.694,0.661,�k��,6.1,��
2020/02/21,03:30,0.686,0.988,0.653,1.219,0.869,0.397,0.692,0.661,�k��,6.1,��
2020/02/21,03:40,0.686,0.989,0.652,1.220,0.866,0.396,0.694,0.660,�k��,6.8,��
2020/02/21,03:50,0.688,0.989,0.649,1.219,0.867,0.395,0.693,0.660,�k��,7.4,��
2020/02/21,04:00,0.686,0.986,0.650,1.220,0.867,0.397,0.695,0.660,�k��,7.0,��
2020/02/21,04:10,0.688,0.987,0.651,1.219,0.868,0.398,0.696,0.661,�k��,6.4,��
2020/02/21,04:20,0.687,0.987,0.648,1.219,0.866,0.397,0.694,0.660,���k��,4.7,��
2020/02/21,04:30,0.688,0.987,0.650,1.219,0.867,0.397,0.694,0.662,���k��,5.2,��
2020/02/21,04:40,0.686,0.986,0.649,1.218,0.869,0.396,0.696,0.661,���k��,5.7,��
2020/02/21,04:50,0.686,0.989,0.648,1.218,0.866,0.396,0.692,0.660,���k��,7.2,��
2020/02/21,05:00,0.686,0.988,0.649,1.219,0.866,0.396,0.694,0.660,���k��,5.3,��
2020/02/21,05:10,0.688,0.987,0.648,1.220,0.865,0.395,0.694,0.660,�k��,3.8,��
2020/02/21,05:20,0.687,0.987,0.648,1.219,0.865,0.396,0.694,0.660,���k��,3.5,��
2020/02/21,05:30,0.685,0.988,0.648,1.216,0.865,0.396,0.691,0.660,���k��,3.1,��
2020/02/21,05:40,0.687,0.987,0.648,1.217,0.865,0.395,0.692,0.659,�k��,2.2,��
2020/02/21,05:50,0.685,0.988,0.649,1.217,0.868,0.393,0.693,0.661,�k��,1.5,��
2020/02/21,06:00,0.685,0.987,0.648,1.217,0.866,0.395,0.693,0.662,�k��,1.5,��
2020/02/21,06:10,0.686,0.988,0.649,1.220,0.866,0.395,0.694,0.659,���k��,1.5,��
2020/02/21,06:20,0.687,0.987,0.648,1.220,0.867,0.397,0.692,0.660,�k��,1.5,��
2020/02/21,06:30,0.686,0.987,0.649,1.219,0.866,0.396,0.693,0.659,�k��,2.6,��
2020/02/21,06:40,0.687,0.988,0.649,1.218,0.865,0.396,0.694,0.660,�k��,3.6,��
2020/02/21,06:50,0.685,0.989,0.648,1.217,0.865,0.396,0.694,0.661,�k��,2.5,��
2020/02/21,07:00,0.685,0.985,0.647,1.218,0.867,0.394,0.693,0.659,���쐼,1.2,��
2020/02/21,07:10,0.685,0.986,0.648,1.218,0.864,0.396,0.693,0.661,�쐼,1.9,��
2020/02/21,07:20,0.686,0.987,0.648,1.220,0.867,0.396,0.692,0.661,���쐼,1.9,��
2020/02/21,07:30,0.687,0.984,0.648,1.219,0.866,0.397,0.693,0.660,��쐼,2.3,��
2020/02/21,07:40,0.687,0.986,0.648,1.220,0.866,0.395,0.694,0.662,��,3.0,��
2020/02/21,07:50,0.688,0.987,0.648,1.221,0.864,0.396,0.694,0.660,��,3.2,��
2020/02/21,08:00,0.690,0.987,0.649,1.220,0.866,0.397,0.694,0.661,��,4.1,��
2020/02/21,08:10,0.689,0.988,0.649,1.221,0.862,0.396,0.694,0.661,��,3.2,��
2020/02/21,08:20,0.688,0.988,0.649,1.219,0.865,0.395,0.695,0.660,��,3.7,��
2020/02/21,08:30,0.688,0.988,0.649,1.220,0.868,0.397,0.697,0.661,��,3.5,��
2020/02/21,08:40,0.689,0.987,0.650,1.218,0.865,0.395,0.695,0.661,��,2.8,��
2020/02/21,08:50,0.691,0.984,0.648,1.218,0.867,0.395,0.696,0.660,��쐼,2.2,��
2020/02/21,09:00,0.690,0.986,0.651,1.221,0.868,0.396,0.696,0.661,��쓌,2.2,��
2020/02/21,09:10,0.690,0.988,0.649,1.217,0.870,0.397,0.696,0.661,�쓌,3.0,��
2020/02/21,09:20,0.690,0.986,0.650,1.217,0.867,0.395,0.696,0.660,���쓌,1.4,��
2020/02/21,09:30,0.692,0.985,0.649,1.218,0.870,0.396,0.696,0.661,�쓌,2.0,��
2020/02/21,09:40,0.690,0.983,0.650,1.219,0.868,0.396,0.695,0.662,�쓌,2.8,��
2020/02/21,09:50,0.691,0.985,0.650,1.220,0.871,0.397,0.694,0.661,�쓌,3.3,��
2020/02/21,10:00,0.689,0.983,0.651,1.221,0.871,0.397,0.695,0.663,�쓌,3.7,��
2020/02/21,10:10,0.691,0.986,0.651,1.219,0.868,0.397,0.694,0.663,���쓌,2.8,��
2020/02/21,10:20,0.692,0.984,0.649,1.220,0.869,0.397,0.691,0.661,��,3.3,��
2020/02/21,10:30,0.692,0.984,0.648,1.220,0.868,0.398,0.696,0.661,��,3.5,��
2020/02/21,10:40,0.692,0.991,0.650,1.219,0.868,0.397,0.692,0.662,���쓌,2.6,��
2020/02/21,10:50,0.693,0.986,0.649,1.221,0.871,0.398,0.695,0.662,��,3.6,��
2020/02/21,11:00,0.691,0.986,0.651,1.221,0.869,0.399,0.694,0.663,��,3.4,��
2020/02/21,11:10,0.692,0.986,0.652,1.220,0.869,0.398,0.694,0.663,��,3.5,��
2020/02/21,11:20,0.692,0.986,0.649,1.220,0.871,0.397,0.694,0.663,���쓌,3.4,��
2020/02/21,11:30,0.691,0.990,0.650,1.221,0.873,0.398,0.692,0.662,���쓌,4.3,��
2020/02/21,11:40,0.693,0.988,0.649,1.218,0.871,0.398,0.695,0.663,��,4.3,��
2020/02/21,11:50,0.691,0.989,0.649,1.219,0.873,0.398,0.694,0.661,��,5.0,��
2020/02/21,12:00,0.691,0.991,0.651,1.222,0.870,0.398,0.694,0.662,���쓌,5.0,��
2020/02/21,12:10,0.692,0.990,0.652,1.218,0.871,0.398,0.694,0.663,���쓌,5.3,��
2020/02/21,12:20,0.690,0.992,0.653,1.222,0.871,0.398,0.695,0.662,���쓌,6.4,��
2020/02/21,12:30,0.691,0.992,0.653,1.222,0.872,0.399,0.695,0.663,���쓌,5.3,��
2020/02/21,12:40,0.694,0.990,0.653,1.222,0.871,0.398,0.696,0.662,���쓌,4.7,��
2020/02/21,12:50,0.689,0.993,0.654,1.220,0.872,0.398,0.694,0.661,�쓌,5.1,��
2020/02/21,13:00,0.693,0.991,0.651,1.220,0.872,0.398,0.695,0.661,���쓌,5.1,��
2020/02/21,13:10,0.691,0.989,0.652,1.221,0.873,0.398,0.695,0.661,�쓌,6.5,��
2020/02/21,13:20,0.693,0.994,0.652,1.222,0.871,0.398,0.695,0.661,���쓌,6.0,��
2020/02/21,13:30,0.694,0.991,0.652,1.221,0.869,0.398,0.696,0.660,�쓌,8.0,��
2020/02/21,13:40,0.691,0.989,0.653,1.222,0.872,0.398,0.696,0.658,�쓌,6.9,��
2020/02/21,13:50,0.693,0.987,0.652,1.225,0.872,0.398,0.695,0.657,�쓌,5.8,��
2020/02/21,14:00,0.691,0.982,0.653,1.224,0.873,0.397,0.695,0.660,�쓌,7.4,��
2020/02/21,14:10,0.691,0.992,0.652,1.224,0.872,0.398,0.694,0.660,�쓌,7.0,��
2020/02/21,14:20,0.691,0.993,0.651,1.224,0.872,0.398,0.696,0.661,�쓌,6.4,��
2020/02/21,14:30,0.694,0.991,0.652,1.224,0.873,0.398,0.695,0.659,�쓌,6.7,��
2020/02/21,14:40,0.694,0.993,0.651,1.223,0.875,0.399,0.695,0.659,�쓌,8.2,��
2020/02/21,14:50,0.693,0.994,0.650,1.223,0.873,0.399,0.695,0.660,���쓌,7.7,��
2020/02/21,15:00,0.693,0.994,0.651,1.226,0.872,0.399,0.694,0.660,���쓌,7.6,��
2020/02/21,15:10,0.694,0.995,0.654,1.221,0.874,0.398,0.697,0.661,�쓌,7.2,��
2020/02/21,15:20,0.693,0.995,0.653,1.223,0.875,0.398,0.695,0.660,���쓌,7.3,��
2020/02/21,15:30,0.696,1.000,0.653,1.223,0.872,0.398,0.696,0.660,�쓌,7.4,��
2020/02/21,15:40,0.694,1.002,0.651,1.224,0.875,0.399,0.695,0.660,�쓌,6.0,��
2020/02/21,15:50,0.695,0.999,0.655,1.223,0.873,0.400,0.696,0.658,�쓌,6.8,��
2020/02/21,16:00,0.696,1.002,0.654,1.222,0.873,0.399,0.698,0.663,��쓌,9.0,��
2020/02/21,16:10,0.694,1.004,0.653,1.224,0.874,0.399,0.696,0.663,��쓌,9.1,��
2020/02/21,16:20,0.693,1.004,0.656,1.223,0.874,0.398,0.695,0.662,��쓌,7.9,��
2020/02/21,16:30,0.694,1.003,0.654,1.223,0.872,0.402,0.698,0.661,��쓌,8.0,��
2020/02/21,16:40,0.695,1.005,0.655,1.222,0.873,0.400,0.697,0.664,��쓌,8.5,��
2020/02/21,16:50,0.695,1.000,0.655,1.225,0.874,0.399,0.697,0.664,��쓌,8.9,��
2020/02/21,17:00,0.696,1.001,0.654,1.222,0.875,0.398,0.698,0.662,��쓌,8.4,��
2020/02/21,17:10,0.695,0.998,0.655,1.223,0.875,0.400,0.697,0.662,��쓌,8.6,��
2020/02/21,17:20,0.696,1.000,0.653,1.223,0.875,0.401,0.698,0.662,��쓌,7.1,��
2020/02/21,17:30,0.693,1.000,0.655,1.224,0.877,0.400,0.699,0.663,��,6.6,��
2020/02/21,17:40,0.694,0.999,0.654,1.224,0.877,0.401,0.697,0.663,��,6.9,��
2020/02/21,17:50,0.695,1.001,0.652,1.223,0.877,0.402,0.697,0.662,��,7.1,��
2020/02/21,18:00,0.695,1.002,0.653,1.221,0.877,0.402,0.698,0.663,��,6.7,��
2020/02/21,18:10,0.694,1.000,0.653,1.221,0.875,0.400,0.698,0.662,��,6.4,��
2020/02/21,18:20,0.695,1.000,0.654,1.221,0.875,0.400,0.699,0.663,��,5.7,��
2020/02/21,18:30,0.694,0.998,0.653,1.222,0.875,0.399,0.698,0.663,��,5.5,��
2020/02/21,18:40,0.694,1.000,0.653,1.224,0.876,0.400,0.697,0.663,��쐼,4.2,��
2020/02/21,18:50,0.693,1.001,0.655,1.222,0.874,0.400,0.697,0.662,�쐼,3.4,��
2020/02/21,19:00,0.695,0.999,0.654,1.223,0.875,0.400,0.698,0.662,�쐼,2.9,��
2020/02/21,19:10,0.695,0.998,0.654,1.225,0.876,0.401,0.696,0.663,���쐼,2.3,��
2020/02/21,19:20,0.695,0.999,0.653,1.222,0.874,0.400,0.696,0.663,�쐼,2.0,��
2020/02/21,19:30,0.692,0.998,0.654,1.221,0.876,0.400,0.696,0.661,��,1.4,��
2020/02/21,19:40,0.694,0.999,0.653,1.225,0.875,0.400,0.697,0.663,��,0.9,��
2020/02/21,19:50,0.695,0.998,0.656,1.224,0.875,0.401,0.696,0.662,�k��,2.0,��
2020/02/21,20:00,0.693,1.000,0.655,1.223,0.877,0.401,0.697,0.663,�k��,2.6,��
2020/02/21,20:10,0.695,0.996,0.654,1.224,0.873,0.399,0.697,0.661,���k��,2.0,��
2020/02/21,20:20,0.695,0.997,0.654,1.222,0.875,0.401,0.697,0.662,���k��,1.4,��
2020/02/21,20:30,0.694,0.999,0.655,1.223,0.875,0.400,0.696,0.662,���k��,1.5,��
2020/02/21,20:40,0.693,0.998,0.653,1.222,0.875,0.399,0.696,0.661,���k��,1.2,��
2020/02/21,20:50,0.695,0.998,0.655,1.222,0.878,0.401,0.697,0.662,���k��,0.9,��
2020/02/21,21:00,0.693,0.998,0.653,1.224,0.876,0.400,0.698,0.661,��,0.9,��
2020/02/21,21:10,0.694,0.997,0.652,1.222,0.875,0.399,0.697,0.661,���쐼,1.4,��
2020/02/21,21:20,0.692,0.998,0.655,1.225,0.875,0.400,0.698,0.663,���쐼,1.7,��
2020/02/21,21:30,0.694,0.997,0.654,1.226,0.876,0.400,0.697,0.662,�쐼,2.2,��
2020/02/21,21:40,0.694,0.998,0.653,1.223,0.876,0.400,0.695,0.663,��쐼,2.5,��
2020/02/21,21:50,0.695,0.995,0.654,1.225,0.877,0.399,0.695,0.663,��쐼,2.0,��
2020/02/21,22:00,0.692,0.996,0.653,1.223,0.874,0.399,0.699,0.663,��쐼,2.3,��
2020/02/21,22:10,0.693,0.996,0.654,1.224,0.875,0.401,0.696,0.660,��쐼,2.6,��
2020/02/21,22:20,0.692,0.995,0.654,1.224,0.875,0.399,0.697,0.662,��쐼,2.0,��
2020/02/21,22:30,0.695,0.995,0.654,1.223,0.875,0.399,0.696,0.663,��쐼,2.5,��
2020/02/21,22:40,0.693,0.995,0.654,1.225,0.875,0.401,0.696,0.662,�쐼,3.0,��
2020/02/21,22:50,0.695,0.994,0.654,1.224,0.875,0.399,0.697,0.663,�쐼,3.5,��
2020/02/21,23:00,0.694,0.994,0.653,1.224,0.874,0.400,0.696,0.662,�쐼,3.7,��
2020/02/21,23:10,0.695,0.994,0.654,1.223,0.875,0.400,0.697,0.661,�쐼,4.1,��
2020/02/21,23:20,0.695,0.995,0.653,1.224,0.876,0.399,0.697,0.661,�쐼,3.9,��
2020/02/21,23:30,0.694,0.997,0.654,1.222,0.875,0.399,0.695,0.662,��쐼,4.0,��
2020/02/21,23:40,0.693,0.998,0.653,1.223,0.876,0.398,0.696,0.663,�쐼,3.7,��
2020/02/21,23:50,0.695,0.996,0.654,1.224,0.875,0.399,0.696,0.664,��쐼,3.1,��
